Probability
6 4 3 2 1 0 0 0 0 0 0 0 0 0 0 0 0 0 0 0 0 0 0 0 1 2 1 0 0 0 0 0 0 0 0 0 1 2 2 1 0 0 0 1 1 1 0 0 0
4 4 4 3 2 0 0 0 0 0 0 0 0 0 0 0 0 0 0 0 0 0 0 0 1 2 2 1 0 0 0 0 0 0 0 0 1 1 1 0 0 0 0 0 0 0 0 0 0
3 3 4 5 3 1 0 0 0 0 0 0 0 0 0 0 0 0 0 0 0 0 0 0 0 1 2 1 0 0 0 0 0 0 0 0 0 1 1 0 0 0 0 0 0 0 0 0 0
3 3 4 3 2 1 0 0 1 1 0 0 0 0 0 0 0 0 0 0 0 0 0 0 0 1 2 1 0 0 0 0 0 0 1 1 1 2 2 1 0 0 0 0 1 1 0 0 0
3 4 3 1 1 0 1 1 1 0 0 0 0 0 0 0 0 0 0 0 0 0 0 0 0 1 2 1 0 0 0 0 0 1 3 3 3 3 2 1 0 0 0 1 1 1 0 1 1
2 2 2 1 1 1 1 2 1 0 0 0 0 0 0 0 0 0 0 0 0 0 0 0 0 1 2 1 0 0 0 0 1 2 4 4 3 2 1 1 1 0 0 1 1 0 0 1 2
1 0 0 1 1 2 2 3 2 1 1 1 0 0 0 0 0 0 0 0 0 0 0 0 0 1 1 0 0 0 1 1 1 1 3 3 2 1 0 0 1 0 0 0 0 0 0 1 1
0 0 0 0 1 1 2 3 3 3 2 2 1 0 0 1 1 1 1 1 0 0 0 0 0 0 0 0 0 0 1 1 1 1 1 1 1 0 0 0 0 0 0 0 0 0 0 0 0
0 0 0 0 0 0 1 2 3 3 3 2 1 0 1 2 3 3 2 1 0 0 0 0 0 0 0 0 0 0 0 0 0 0 0 0 0 0 0 0 0 0 0 0 1 1 1 1 0
1 1 0 0 0 0 0 1 2 3 3 2 1 1 3 4 4 3 3 2 1 0 0 0 0 0 0 0 0 0 0 0 0 0 0 0 0 0 0 0 0 0 0 0 1 2 2 1 1
2 1 0 0 0 0 0 0 1 2 2 2 2 2 4 4 4 3 3 2 1 0 0 0 0 0 0 0 0 0 0 0 0 0 0 0 0 0 0 0 0 0 0 0 1 1 1 1 0
2 1 0 0 0 0 0 0 0 1 1 1 2 3 3 3 3 2 1 1 1 0 0 0 0 0 0 0 0 0 0 0 0 0 0 0 0 0 0 0 0 0 0 0 0 0 0 0 0
1 0 0 0 0 0 0 0 0 0 0 1 2 2 1 1 1 1 0 0 0 0 0 0 0 0 0 0 0 0 0 0 0 0 0 0 0 0 0 0 0 0 0 0 0 0 0 0 0
0 0 1 1 1 0 0 0 0 0 0 0 1 1 0 0 0 0 0 0 0 0 0 0 0 0 0 0 0 0 0 0 0 0 0 0 0 0 0 0 1 1 1 1 0 0 0 0 1
1 1 1 1 1 1 1 1 0 1 2 1 0 0 0 0 0 0 0 0 0 0 0 0 0 0 0 0 0 0 0 0 0 0 0 0 0 0 0 0 1 2 2 2 1 0 0 1 2
0 0 0 0 0 1 2 2 1 2 2 2 0 0 0 0 0 0 0 0 0 0 0 0 1 1 0 0 0 0 0 0 0 0 0 0 0 0 0 0 0 1 2 2 2 1 0 1 2
0 0 0 0 0 1 3 3 3 3 3 2 1 0 0 0 0 0 0 0 0 0 0 1 2 2 1 0 0 0 0 0 0 0 0 0 0 0 0 0 0 0 1 1 2 2 1 1 1
0 0 0 0 0 1 3 4 4 4 4 2 2 1 1 0 0 0 0 0 0 0 0 1 2 2 1 0 0 0 0 0 1 1 1 1 1 1 0 0 0 0 0 1 2 3 3 2 2
0 0 0 0 0 1 1 3 3 4 4 4 3 3 2 1 0 0 0 0 0 0 0 1 2 3 1 0 0 1 1 1 2 2 2 2 2 1 0 0 0 0 0 1 2 3 3 3 3
0 0 0 0 0 0 0 1 2 3 5 6 5 4 3 1 0 0 0 0 0 0 0 1 3 3 2 1 1 2 2 3 3 3 3 3 2 1 0 0 0 0 0 0 1 2 3 3 3
0 0 0 0 0 0 0 0 1 3 5 7 7 5 4 3 2 1 1 1 0 0 0 1 2 4 3 3 3 3 3 3 3 3 2 1 1 0 0 0 0 0 0 0 0 1 2 2 1
0 0 0 0 0 0 0 0 1 2 5 6 6 5 5 5 4 3 2 2 1 0 0 0 1 3 3 3 3 3 4 4 3 2 1 0 0 0 0 0 0 0 0 0 0 1 1 1 0
0 0 0 0 0 0 0 0 0 2 3 5 4 5 6 6 4 3 3 3 1 0 0 0 0 1 2 3 2 3 5 5 3 1 0 0 0 0 0 0 0 0 0 0 0 1 1 0 0
0 0 0 0 0 0 0 1 1 2 2 3 3 4 6 5 4 3 3 3 2 1 0 0 0 1 2 4 4 3 4 3 2 1 1 1 1 1 1 0 0 0 0 0 0 0 0 0 0
0 0 0 0 0 0 1 2 3 3 2 2 3 4 5 4 2 3 3 3 4 4 3 3 3 3 4 5 5 4 2 1 1 2 2 2 2 2 2 1 0 0 0 0 0 0 0 0 0
0 0 0 0 0 0 1 2 3 3 3 3 4 4 4 3 2 2 3 4 5 7 9 9 8 7 5 5 5 3 1 0 1 2 3 3 3 3 2 1 0 0 0 0 0 0 0 0 0
0 0 0 0 0 0 1 2 3 4 5 7 7 5 4 3 2 3 3 4 6 9 12 12 10 8 6 4 3 2 0 0 1 2 3 3 3 3 2 1 1 0 0 0 0 0 0 0 0
0 0 0 0 0 0 1 2 3 4 6 9 8 5 4 4 4 4 4 5 7 10 12 12 10 6 4 3 3 2 1 0 0 1 2 3 3 3 1 1 1 1 1 1 1 1 0 0 0
0 0 0 0 0 0 0 1 2 3 4 6 6 3 2 4 5 5 5 5 7 9 11 12 10 6 3 3 4 3 1 0 0 0 1 3 3 3 2 0 0 0 1 1 2 1 1 1 1
0 0 0 0 0 0 0 0 1 1 1 3 4 2 1 3 5 6 5 5 6 9 11 12 10 7 4 3 5 4 2 1 0 0 1 1 2 2 1 0 0 0 0 1 1 0 1 2 3
Wind_Speed
8 6 2 0 2 4 2 3 1 1 3 2 4 5 5 3 1 1 1 4 6 5 4 6 9 10 11 11 11 11 12 13 13 13 12 12 12 11 11 11 10 10 10 9 8 8 9 8 8
6 4 1 1 4 3 3 2 2 2 3 4 5 5 5 4 3 4 3 4 6 5 4 6 10 11 11 11 11 10 11 12 12 12 12 11 11 10 10 9 10 10 9 8 8 7 8 8 7
6 3 1 2 3 1 1 1 2 3 3 2 4 4 4 2 2 3 3 6 6 5 4 6 11 11 11 11 10 10 11 11 11 11 11 11 10 10 9 8 9 9 8 8 7 7 7 7 7
3 1 2 3 2 1 2 1 2 3 3 5 4 5 4 3 3 4 7 8 6 4 3 6 12 11 11 11 10 9 9 10 10 10 10 9 9 9 8 8 8 7 7 7 7 6 6 6 5
1 2 4 3 2 2 0 1 2 3 3 4 4 5 4 4 6 9 8 7 6 3 2 5 11 11 10 10 10 9 9 9 9 9 8 8 7 7 7 7 7 6 6 6 5 6 5 5 5
2 3 4 2 2 1 1 2 3 4 4 4 4 4 3 3 6 7 7 6 5 4 3 5 10 10 10 9 9 9 8 9 8 8 7 7 6 6 6 6 6 6 5 5 5 5 4 4 4
2 3 1 0 1 1 1 2 3 4 4 3 4 5 3 2 4 6 6 5 5 4 4 4 4 5 7 8 8 8 7 7 7 7 6 6 5 5 5 5 5 5 5 4 4 3 3 3 2
2 3 1 1 1 1 2 2 3 4 4 4 4 6 4 4 6 7 6 5 4 4 3 3 3 3 3 3 6 7 6 6 6 6 5 5 4 4 4 4 4 4 4 4 3 3 3 2 2
2 4 1 3 3 2 2 3 2 3 5 3 3 4 6 11 9 8 6 4 3 3 2 2 3 3 2 2 3 4 4 4 3 3 3 2 1 1 1 2 3 3 3 3 3 2 2 1 1
3 2 4 4 4 3 3 3 4 4 3 3 6 7 11 11 10 8 7 6 5 4 2 2 2 2 2 2 2 1 1 1 1 1 1 1 1 0 1 1 1 2 2 2 1 1 1 1 1
4 4 3 2 3 4 4 3 3 6 3 5 9 13 12 11 9 8 7 5 5 4 3 2 2 2 2 1 1 1 1 1 1 1 1 1 1 1 1 1 1 1 0 0 1 1 1 1 0
2 4 2 1 2 4 5 4 3 3 4 7 11 14 13 12 10 9 8 6 4 4 3 3 3 2 2 1 1 1 1 1 0 0 1 1 0 0 0 0 0 0 0 1 1 0 1 0 0
2 2 1 1 2 4 6 4 4 2 5 10 12 12 12 11 9 7 6 6 5 5 4 4 4 3 2 2 1 1 1 1 0 0 1 1 1 0 0 0 0 0 0 1 0 0 0 0 1
1 1 2 2 4 2 5 2 3 3 8 11 12 10 10 10 9 7 7 7 7 7 5 4 4 4 3 2 1 1 1 1 1 0 1 1 1 1 0 0 0 1 1 1 1 1 1 1 1
1 3 4 2 2 2 5 2 2 6 9 10 10 9 9 8 8 9 9 8 7 7 6 5 5 4 4 3 2 1 1 1 0 1 1 1 1 1 1 0 1 1 1 1 1 1 0 0 0
3 4 2 3 1 2 5 2 3 7 10 9 9 9 8 8 8 8 8 7 7 6 6 5 5 5 4 3 2 1 1 1 1 0 0 1 1 1 1 0 1 1 0 1 1 1 1 0 0
4 1 2 3 1 2 3 3 3 7 9 9 9 9 8 7 7 7 8 7 7 7 6 6 4 5 5 4 2 1 1 1 1 1 1 1 1 1 1 1 1 0 0 0 1 1 1 1 0
2 1 2 3 2 2 2 3 4 8 9 9 8 8 8 9 10 8 7 7 6 6 6 6 4 4 4 3 2 1 1 0 1 1 1 1 1 1 1 1 0 0 1 0 1 1 1 1 1
3 2 3 4 2 2 4 4 5 7 8 8 8 8 9 10 7 6 7 7 6 6 6 6 5 4 4 2 2 2 1 1 0 1 1 1 1 1 1 0 0 0 1 1 1 1 1 1 1
3 2 3 3 1 2 2 4 3 6 10 10 11 10 10 7 5 6 7 7 8 8 7 6 6 6 5 3 3 2 2 1 1 0 0 1 1 1 1 1 1 1 1 1 1 1 1 0 1
2 4 4 3 1 3 2 4 3 3 5 6 7 8 9 10 10 8 9 9 8 8 9 8 7 6 5 4 3 2 2 1 1 1 0 1 1 1 1 1 1 1 1 1 1 1 2 1 0
4 5 5 3 2 1 2 2 6 4 4 6 7 8 9 9 9 9 9 9 9 9 8 7 7 6 5 5 4 4 3 2 2 1 1 1 0 1 1 1 1 1 1 1 1 1 2 2 1
5 1 2 3 3 1 1 1 8 1 4 8 8 9 9 10 11 11 11 11 9 8 7 7 6 6 5 5 5 5 3 2 1 1 1 0 0 0 1 1 1 1 1 1 1 1 1 2 2
3 6 6 6 5 0 3 3 7 4 7 6 6 8 9 10 10 9 8 7 7 7 6 6 6 5 5 5 5 5 5 4 3 1 1 1 0 0 1 1 1 1 1 1 1 1 1 2 2
4 6 4 4 3 5 2 3 9 6 5 6 6 7 7 8 9 9 9 8 8 8 8 7 7 6 5 5 5 5 5 5 4 3 3 2 1 1 2 1 1 1 1 1 1 1 1 1 2
3 8 8 5 5 5 1 5 7 5 4 3 4 4 4 6 8 9 10 10 9 9 9 8 8 6 6 6 5 4 4 3 3 3 3 3 2 2 2 2 2 1 1 1 1 1 2 1 2
5 3 5 7 2 1 5 6 8 3 3 1 2 3 4 5 6 8 8 8 9 9 9 9 8 7 6 6 5 4 4 4 3 3 2 2 2 1 1 1 1 1 1 1 1 1 2 2 2
5 8 6 6 5 3 5 4 5 5 4 3 3 4 4 3 4 5 6 7 8 8 8 8 8 8 6 6 5 5 4 4 3 3 2 2 2 1 1 1 1 0 0 1 1 1 1 1 1
3 4 5 5 5 6 3 7 5 7 5 5 5 4 3 4 5 5 5 6 6 6 6 6 6 6 6 6 5 5 4 4 3 3 3 3 2 2 2 2 1 1 1 1 1 1 1 1 1
5 6 8 6 4 4 4 8 4 4 4 4 3 2 2 3 4 5 5 6 6 7 6 7 6 6 6 6 5 5 4 4 4 4 3 3 3 3 3 2 2 1 1 1 1 1 1 1 2
Wind_Direction
150 143 153 134 45 43 1 333 15 49 54 62 84 85 92 78 96 133 102 127 126 132 138 142 139 133 129 127 126 127 131 131 131 132 133 133 134 135 134 135 135 134 131 128 125 122 128 126 126
143 158 200 51 67 42 336 333 47 52 130 125 84 74 69 58 51 98 116 124 124 131 132 141 140 135 132 130 129 128 133 133 133 135 136 137 138 139 138 140 140 139 136 134 131 130 130 131 130
161 194 58 58 76 136 276 307 103 88 90 82 72 59 65 63 93 117 131 126 116 121 130 150 142 138 135 132 130 128 132 135 135 135 135 137 139 141 142 144 142 143 143 143 142 138 137 137 135
161 86 50 60 47 251 206 228 132 109 62 50 80 65 58 55 106 119 123 121 117 117 139 156 143 141 137 135 132 131 132 136 136 135 136 138 140 142 143 141 141 142 147 148 144 138 136 138 142
93 74 52 33 2 333 107 175 119 91 76 62 77 79 47 25 86 111 121 119 120 113 116 151 143 140 137 136 135 133 136 139 137 138 140 141 144 146 147 146 144 145 148 149 144 140 135 137 138
65 63 66 17 339 347 76 127 95 89 92 86 79 79 51 70 102 118 119 115 112 106 91 115 136 137 137 138 139 137 136 140 140 138 139 145 148 150 149 151 151 149 149 147 146 145 146 145 137
98 80 86 224 308 328 148 101 105 111 104 99 105 91 81 101 113 113 105 100 96 94 91 92 111 126 136 139 141 142 143 142 141 141 141 144 145 146 147 149 151 154 156 155 154 151 147 148 154
143 93 53 300 210 239 135 93 104 114 110 117 112 126 158 166 125 105 94 90 92 89 90 96 94 90 94 117 141 148 150 148 147 146 146 144 143 141 146 146 153 158 161 161 162 164 165 163 167
120 72 236 220 192 204 145 115 123 88 108 105 96 129 145 134 123 113 106 99 109 119 93 101 98 93 95 111 152 148 150 145 142 140 147 131 78 81 133 167 175 178 180 180 180 178 171 147 129
109 134 233 221 186 161 159 143 148 110 107 87 82 94 120 131 137 141 147 153 161 163 157 132 125 119 115 136 100 77 79 70 65 57 60 65 62 61 136 184 188 202 204 202 192 200 122 60 44
161 203 240 245 180 140 140 135 128 129 163 175 153 144 143 145 151 158 164 168 178 173 167 156 152 144 133 107 96 82 66 59 55 62 70 61 45 21 26 21 344 358 0 29 42 17 54 58 55
184 253 224 232 146 136 148 137 123 158 197 158 151 150 151 159 167 174 177 179 172 174 187 177 164 156 157 138 110 110 108 91 68 41 119 110 69 37 49 40 6 24 54 87 71 73 71 58 260
216 287 325 143 106 129 122 126 136 153 123 128 136 147 160 168 175 180 180 176 172 184 194 188 174 168 162 145 157 140 150 149 140 77 109 141 173 205 89 36 40 352 117 149 147 164 167 236 272
247 29 31 55 83 102 117 106 108 151 133 136 148 162 173 178 178 175 178 183 184 190 194 185 179 176 167 161 162 172 175 163 143 190 193 178 185 183 141 343 310 275 220 188 184 202 198 222 227
31 50 24 33 93 133 110 61 200 157 142 149 163 173 181 187 182 185 187 185 184 186 186 182 180 172 172 175 174 165 180 161 184 222 203 187 188 181 172 207 269 267 223 184 175 181 154 187 185
46 54 17 301 114 121 122 221 218 155 153 165 176 181 186 196 198 197 189 184 181 177 178 185 183 170 175 177 170 168 179 167 194 208 192 204 203 179 161 201 259 259 175 159 160 151 136 88 96
34 50 266 290 222 131 136 221 201 163 165 179 188 190 192 198 207 205 193 185 181 179 175 179 180 169 173 172 165 166 167 167 185 178 187 222 213 164 158 213 264 219 142 159 187 128 152 159 203
239 246 262 257 248 132 185 236 200 177 180 191 193 194 197 203 211 202 191 185 178 175 172 176 175 169 159 147 133 123 114 173 172 184 202 208 206 171 154 185 259 166 123 82 174 161 139 171 191
184 203 254 265 234 154 214 235 218 189 191 198 199 198 204 212 210 189 183 176 169 169 172 177 174 172 155 146 151 155 184 197 186 196 181 185 185 161 160 188 194 149 154 183 175 147 108 51 87
180 226 267 292 7 144 223 268 242 198 202 202 201 202 205 204 190 182 178 177 180 178 180 182 182 175 171 170 164 161 152 161 161 81 75 178 190 186 182 174 187 174 149 107 122 135 131 115 117
221 202 225 221 19 51 76 327 284 248 213 210 209 203 202 197 193 190 187 188 184 186 189 191 187 178 174 163 135 111 81 59 61 66 89 247 202 187 175 164 150 146 152 177 190 171 163 173 169
250 228 199 170 114 327 79 282 286 257 241 222 218 207 206 200 191 192 190 189 192 195 188 184 179 176 171 161 157 156 162 177 197 191 204 250 191 170 171 157 147 145 153 179 215 176 174 153 170
214 232 121 121 125 59 29 173 284 294 248 241 226 214 210 198 192 192 193 192 189 185 181 177 171 173 171 165 165 163 164 173 164 145 155 226 356 172 198 169 158 160 166 194 199 148 165 162 168
148 70 59 52 70 314 230 176 272 242 227 241 224 215 208 197 193 192 190 181 175 169 172 169 169 179 173 169 168 168 169 168 157 160 178 236 288 273 249 193 184 193 187 204 208 191 182 183 170
91 91 41 4 6 252 220 192 248 255 241 226 221 211 200 189 187 183 180 178 176 173 174 171 170 178 177 172 173 178 178 176 179 184 192 197 214 236 248 223 207 206 214 213 190 186 213 203 188
167 141 156 192 223 270 285 231 255 268 270 237 208 192 176 181 184 185 187 183 181 180 175 170 173 175 170 173 180 178 174 176 187 187 185 193 205 222 228 211 205 209 213 223 190 196 223 210 214
139 160 160 134 148 276 275 281 298 289 293 252 190 169 182 188 185 186 182 177 176 177 176 173 170 171 174 179 179 177 178 179 187 180 177 188 202 203 189 192 194 211 207 218 205 223 234 216 223
139 142 103 122 153 239 282 272 256 268 263 246 211 197 193 169 162 169 173 174 174 175 172 167 168 176 179 179 183 184 184 185 180 165 174 188 196 185 169 194 191 202 197 205 202 240 247 224 249
118 109 112 120 152 163 236 266 231 223 223 217 224 208 177 165 165 165 168 168 162 160 163 165 169 168 175 183 182 184 183 182 175 180 187 185 181 177 183 190 188 197 210 242 219 242 234 229 268
157 161 147 156 201 174 182 261 274 219 210 200 217 204 173 163 160 157 152 147 153 160 164 168 170 175 182 181 177 180 181 178 184 194 195 182 182 188 193 189 181 199 221 235 226 247 252 235 255